This is the latest recevied weather packets stored in our database for station/object GBTWP-2. If no packets are shown the sender has not sent any weather packets the latest 10 day(s).
| Time | Temp. | Humidity | Pressure | Rain* | Wind** | Luminosity | Snow |
|---|---|---|---|---|---|---|---|
| 1776982802 | 26.11° C | 54% | 1012.3 hPa | 0 mm | - | 68 W/m² | - |
| 1776982503 | 26.67° C | 49% | 1012.2 hPa | 0 mm | - | 62 W/m² | - |
| 1776981902 | 26.11° C | 54% | 1012.5 hPa | 0 mm | - | 89 W/m² | - |
| 1776981002 | 26.11° C | 51% | 1012.5 hPa | 0 mm | - | 93 W/m² | - |
| 1776980402 | 26.11° C | 51% | 1012.5 hPa | 0 mm | - | 58 W/m² | - |
| 1776980102 | 26.67° C | 49% | 1012.6 hPa | 0 mm | - | 67 W/m² | - |
| 1776979503 | 26.67° C | 48% | 1012.8 hPa | 0 mm | - | 77 W/m² | - |
| 1776978901 | 26.67° C | 48% | 1013.1 hPa | 0 mm | - | 84 W/m² | - |
| 1776978602 | 26.67° C | 49% | 1012.9 hPa | 0 mm | - | 160 W/m² | - |
| 1776978002 | 26.11° C | 50% | 1013.2 hPa | 0 mm | - | 83 W/m² | - |
| 1776977402 | 26.67° C | 48% | 1013.4 hPa | 0 mm | - | 129 W/m² | - |
| 1776976802 | 26.67° C | 48% | 1013.5 hPa | 0 mm | - | 138 W/m² | - |
| 1776976502 | 26.67° C | 47% | 1013.6 hPa | 0 mm | - | 85 W/m² | - |
| 1776975002 | 27.22° C | 47% | 1013.9 hPa | 0 mm | - | 137 W/m² | - |
| 1776974702 | 27.22° C | 48% | 1013.9 hPa | 0 mm | - | 303 W/m² | - |
| 1776974402 | 27.22° C | 48% | 1014.3 hPa | 0 mm | - | 133 W/m² | - |
| 1776974102 | 26.67° C | 46% | 1014.1 hPa | 0 mm | - | 234 W/m² | - |
| 1776973802 | 26.67° C | 46% | 1014.2 hPa | 0 mm | - | 212 W/m² | - |
| 1776973502 | 26.67° C | 48% | 1014.4 hPa | 0 mm | - | 103 W/m² | - |
| 1776973202 | 26.67° C | 45% | 1014.3 hPa | 0 mm | - | 124 W/m² | - |
| 1776972602 | 26.67° C | 45% | 1014.5 hPa | 0 mm | - | 264 W/m² | - |
| 1776972303 | 26.67° C | 49% | 1014.6 hPa | 0 mm | - | 325 W/m² | - |
* Rain latest hour (hover to see other rain measurements)
** Current wind speed in m/s (hover to see current wind gust speed)